Location: Newark
(41.0400°S, 62.7845°W)
Time: 20:06:54
(UTC+00:00)

Courier 1B Rocket - Pass Details

Date: 09 December 2021
Orbit: 920 x 1202 km, 28.2° (Epoch: 21 January)

Event Time Altitude Azimuth Distance (km) Brightness Sun altitude
Rises 11:02:34 0° 335° (NNW) 3,722 7.7 25.6°
Reaches altitude 10° 11:07:01 10° 2° (N) 2,844 7.5 26.4°
Maximum altitude 11:09:50 13° 27° (NNE) 2,690 7.7 27.0°
Drops below altitude 10° 11:12:44 10° 51° (NE) 2,938 8.2 27.5°
Sets 11:17:29 0° 77° (ENE) 3,969 9.2 28.4°
